"Pseudo-MPEC" for C3ZNYR2

Created 2020 Nov 24 2:07:12 UT using Find_Orb

Click here for an explanation of pseudo-MPECs

 
 Astrometry: 
     C3ZNYR2  C2020 11 19.52296212 13 53.27 +28 29 23.0    ~BJDM 21.43GVNEOCPG96
     C3ZNYR2  C2020 11 19.52744612 13 54.08 +28 29 20.4    ~BJDM 21.70GVNEOCPG96
     C3ZNYR2  C2020 11 19.53192112 13 54.93 +28 29 16.9    ~BJDM 21.28GVNEOCPG96
     C3ZNYR2 1C2020 11 20.18428 12 15 59.48 +28 20 47.5    ~BK97 21.8 VVNEOCP033
     C3ZNYR2 1C2020 11 20.18787 12 16 00.12 +28 20 45.1    ~BK97 21.5 VVNEOCP033
     C3ZNYR2 1C2020 11 20.19145 12 16 00.77 +28 20 42.4    ~BK97 21.7 VVNEOCP033
     C3ZNYR2 2C2020 11 209sZJUgO9Bkcn*Ruq#UgoeUAstrometryKGD`Z23\K,qO;^%/ZJrNJ04
     C3ZNYR2 2C2020 11 20T$I%'%FQD!Go#F/7XvM^)D3x\laZEJ8n)redacted;tMOKqQL@.rJ04
     C3ZNYR2 2C2020 11 20)EQr5cqH;S;#J17clicko6O=?IkoN!].M@S$F%mcv%P1(hereTv?J04
     C3ZNYR2 KC2020 11 20.51648112 17 02.73 +28 16 29.4    ~BKD7 21.14GVNEOCPI52
     C3ZNYR2 KC2020 11 20.52244512 17 03.84 +28 16 24.9    ~BKD7 21.25GVNEOCPI52
     C3ZNYR2 KC2020 11 20.52840812 17 04.98 +28 16 20.5    ~BKD7 21.50GVNEOCPI52
     C3ZNYR2 KC2020 11 21.52086012 20 13.17 +28 03 24.0    ~BLD7       VNEOCPG96
     C3ZNYR2 KC2020 11 21.52260012 20 13.45 +28 03 21.5    ~BLD7 21.01GVNEOCPG96
     C3ZNYR2 KC2020 11 21.52433912 20 13.88 +28 03 19.4    ~BLD7       VNEOCPG96
     C3ZNYR2 KC2020 11 21.52608112 20 14.23 +28 03 17.9    ~BLD7       VNEOCPG96
     C3ZNYR2 bC2020 11 22IfHf,r1UN/Ue=)+Ja,)UIKN0\Vd2Ogyx-_J?:JGIZ2@cqDJ#M%MSL01
     C3ZNYR2 bC2020 11 22PU=ff'S;n,mVk=u+BB..(e%Li]yId-y?J@+,M!TYnfor0J2_/T'qL01
     C3ZNYR2 IC2020 11 22ViyuoKR$geA5jaAv4BPG6;qZV\QfKP;tUZL3GByh2i)S?qOI?diBL01
     C3ZNYR2 KC2020 11 22.49228212 23 16.56 +27 50 35.6    ~BMCM 21.92GVNEOCPV06
     C3ZNYR2 KC2020 11 22.49624612 23 17.31 +27 50 32.2    ~BMCM 22.60GVNEOCPV06
     C3ZNYR2 KC2020 11 22.50020812 23 18.04 +27 50 29.3    ~BMCM 21.96GVNEOCPV06
     C3ZNYR2 KC2020 11 23eIRGsL*4G_HMspJL8\;vi4m]f]HU%g%2hY+:d?;#BiP89*Oq+N\iH21
     C3ZNYR2 KC2020 11 23:skIS2(eTpHZid]1S4#FjbubB9mpO6dH[hUGp@!2jJl44*yArWgbH21
     C3ZNYR2 KC2020 11 23?$;/L2explanation8P:xpyij!U[KHI9,4XYU@RqynZKZrg02?)(H21
     C3ZNYR2 KC2020 11 23.50182912 26 25.91 +27 37 14.0    ~BNCb 21.41GVNEOCPV06
     C3ZNYR2 KC2020 11 23.50499612 26 26.48 +27 37 11.6    ~BNCb 21.48GVNEOCPV06
     C3ZNYR2 KC2020 11 23.50816312 26 27.06 +27 37 08.9    ~BNCb 20.59GVNEOCPV06

Station data:
(033) Karl Schwarzschild Observatory, Tautenburg  (N50.980140 E11.711240)
   Germany. 1.3-m Schmidt.
(G96) Mt. Lemmon Survey  (N32.442754 W110.788720)  US/Arizona.  Observers T.
   A. Pruyne, B. M. Africano, E. J. Christensen, G. A. Farneth, D. C. Fuls,
   A. R. Gibbs, A. D. Grauer, H. Gröller, J. A. Johnson, R. A. Kowalski, S.
   M. Larson, G. J. Leonard, D. Rankin, R. L. Seaman, F. C. Shelly. 1.5-m
   reflector + 10K CCD.
(H21) Astronomical Research Observatory, Westfield  (N39.483057 W87.968270)
   US/Illinois. 0.76-m f/3.0 astrograph + CCD.
(I52) Steward Observatory, Mt. Lemmon Station  (N32.442547 W110.788920)
   US/Arizona.  Observers T. A. Pruyne, B. M. Africano, E. J. Christensen, G.
   A. Farneth, D. C. Fuls, A. R. Gibbs, A. D. Grauer, H. Gröller, J. A.
   Johnson, R. A. Kowalski, S. M. Larson, G. J. Leonard, D. Rankin, R. L.
   Seaman, F. C. Shelly. 1.0-m reflector + CCD.
(J04) ESA Optical Ground Station, Tenerife  (N28.300924 W16.511830)  Canary
   Islands (Spain).  Observer D. Abreu. Measurers M. Micheli, D. Koschny, E.
   Schwab, M. Busch, A. Knöfel. 1.0-m f/4.4 reflector + CCD.
(L01) Višnjan Observatory, Tičan  (N45.290900 E13.749300)  Croatia.
   Observers K. Korlević, E. Pettarin. Measurer E. Pettarin. 1.0-m f/2.9
   reflector + CCD.
(V06) Catalina Sky Survey-Kuiper  (N32.416847 W110.732550)  US/Arizona.
   Observers T. A. Pruyne, B. M. Africano, E. J. Christensen, G. A. Farneth,
   D. C. Fuls, A. R. Gibbs, A. D. Grauer, H. Gröller, J. A. Johnson, R. A.
   Kowalski, S. M. Larson, G. J. Leonard, D. Rankin, R. L. Seaman, F. C.
   Shelly. 1.55-m reflector + CCD.

Orbital elements:  C3ZNYR2
   Perihelion 2020 Dec 21.076843 TT =  1:50:39 (JD 2459204.576843)
Epoch 2020 Nov 23.0 TT = JDT 2459176.5   Earth MOID: 0.7400   AutoNEOCP
M 353.17464859                      (J2000 ecliptic)
n   0.24309540     Peri.  101.81012
a   2.54264007     Node    47.88234
e   0.3998621      Incl.   28.43721
P   4.05           H   18.3     G   0.15   q 1.52593461  Q 3.55934553
From 28 observations 2020 Nov. 19-23; mean residual 0".42
Residuals in arcseconds: 
201119 G96  .12+  .46-    201120 I52  .17-  .33-    201122 V06  .72+  .12-    
201119 G96  .41-  .37+    201120 I52  .03+  .13-    201122 V06  .58+  .08+    
201119 G96  .39-  .30+    201121 G96  .68-  1.6+    201123 H21  .12-  .09+    
201120 033  .87+  .13-    201121 G96  1.3-  .48+    201123 H21  .15-  .32-    
201120 033  .35+  .24+    201121 G96  .07+  .26-    201123 H21  .07-  .03+    
201120 033  .02-  .31+    201121 G96  .38+  .41-    201123 V06  .12+  .13+    
201120 J04  .29+  .14-    201122 L01  .60-  .07-    201123 V06  .12-  .22+    
201120 J04  .02+  .12-    201122 L01  .38-  .26-    201123 V06  .23-  .01+    
201120 J04  .07-  .10-    201122 L01  .30+  .16-    
201120 I52  .03+  .43-    201122 V06  .60+  .19+    

Ephemerides (geocentric):
Date (UTC) HH   RA              Dec         delta   r     elong  mag
---- -- -- --  -------------   -----------  ------ ------ -----  ---
2020 11 24 02  12 28 14.218   +27 29 31.33  1.5697 1.5443  70.1 21.8
2020 11 24 03  12 28 21.986   +27 28 58.03  1.5694 1.5442  70.1 21.8
2020 11 24 04  12 28 29.753   +27 28 24.72  1.5692 1.5441  70.1 21.8
2020 11 24 05  12 28 37.517   +27 27 51.41  1.5690 1.5441  70.1 21.8
2020 11 24 06  12 28 45.280   +27 27 18.08  1.5687 1.5440  70.2 21.8
2020 11 24 07  12 28 53.040   +27 26 44.75  1.5685 1.5440  70.2 21.8
2020 11 24 08  12 29 00.799   +27 26 11.42  1.5682 1.5439  70.2 21.8
2020 11 24 09  12 29 08.556   +27 25 38.07  1.5680 1.5439  70.2 21.8
2020 11 24 10  12 29 16.311   +27 25 04.72  1.5678 1.5438  70.2 21.8
2020 11 24 11  12 29 24.064   +27 24 31.36  1.5675 1.5438  70.2 21.8
2020 11 24 12  12 29 31.816   +27 23 57.99  1.5673 1.5437  70.2 21.8
2020 11 24 13  12 29 39.565   +27 23 24.62  1.5671 1.5436  70.2 21.8
2020 11 24 14  12 29 47.313   +27 22 51.23  1.5668 1.5436  70.2 21.8
2020 11 24 15  12 29 55.059   +27 22 17.84  1.5666 1.5435  70.2 21.8
2020 11 24 16  12 30 02.803   +27 21 44.44  1.5664 1.5435  70.2 21.8
2020 11 24 17  12 30 10.545   +27 21 11.04  1.5661 1.5434  70.2 21.8
2020 11 24 18  12 30 18.285   +27 20 37.63  1.5659 1.5434  70.3 21.8
2020 11 24 19  12 30 26.023   +27 20 04.21  1.5657 1.5433  70.3 21.8
2020 11 24 20  12 30 33.760   +27 19 30.78  1.5654 1.5433  70.3 21.8
2020 11 24 21  12 30 41.494   +27 18 57.34  1.5652 1.5432  70.3 21.8
2020 11 24 22  12 30 49.227   +27 18 23.90  1.5650 1.5432  70.3 21.8
2020 11 24 23  12 30 56.958   +27 17 50.45  1.5647 1.5431  70.3 21.8
2020 11 25 00  12 31 04.687   +27 17 17.00  1.5645 1.5430  70.3 21.8
2020 11 25 01  12 31 12.414   +27 16 43.53  1.5643 1.5430  70.3 21.8
2020 11 25 02  12 31 20.140   +27 16 10.06  1.5640 1.5429  70.3 21.8
2020 11 25 03  12 31 27.863   +27 15 36.58  1.5638 1.5429  70.3 21.8
2020 11 25 04  12 31 35.584   +27 15 03.09  1.5636 1.5428  70.3 21.8
2020 11 25 05  12 31 43.304   +27 14 29.60  1.5633 1.5428  70.3 21.7
2020 11 25 06  12 31 51.022   +27 13 56.10  1.5631 1.5427  70.4 21.7
2020 11 25 07  12 31 58.738   +27 13 22.59  1.5629 1.5427  70.4 21.7
2020 11 25 08  12 32 06.452   +27 12 49.08  1.5626 1.5426  70.4 21.7
2020 11 25 09  12 32 14.164   +27 12 15.56  1.5624 1.5426  70.4 21.7
2020 11 25 10  12 32 21.874   +27 11 42.03  1.5622 1.5425  70.4 21.7
2020 11 25 11  12 32 29.583   +27 11 08.49  1.5619 1.5425  70.4 21.7
2020 11 25 12  12 32 37.289   +27 10 34.95  1.5617 1.5424  70.4 21.7
2020 11 25 13  12 32 44.994   +27 10 01.40  1.5615 1.5423  70.4 21.7
2020 11 25 14  12 32 52.697   +27 09 27.84  1.5612 1.5423  70.4 21.7
2020 11 25 15  12 33 00.398   +27 08 54.28  1.5610 1.5422  70.4 21.7
2020 11 25 16  12 33 08.097   +27 08 20.71  1.5608 1.5422  70.4 21.7
2020 11 25 17  12 33 15.794   +27 07 47.13  1.5606 1.5421  70.4 21.7
2020 11 25 18  12 33 23.489   +27 07 13.54  1.5603 1.5421  70.4 21.7
2020 11 25 19  12 33 31.183   +27 06 39.95  1.5601 1.5420  70.5 21.7
2020 11 25 20  12 33 38.874   +27 06 06.35  1.5599 1.5420  70.5 21.7
2020 11 25 21  12 33 46.564   +27 05 32.75  1.5596 1.5419  70.5 21.7
2020 11 25 22  12 33 54.252   +27 04 59.13  1.5594 1.5419  70.5 21.7
2020 11 25 23  12 34 01.938   +27 04 25.51  1.5592 1.5418  70.5 21.7
2020 11 26 00  12 34 09.622   +27 03 51.89  1.5589 1.5418  70.5 21.7
2020 11 26 01  12 34 17.304   +27 03 18.26  1.5587 1.5417  70.5 21.7